{"data":{"norad_id":57859,"epoch":"2026-09-20T21:50:43.872864Z","epoch_age_seconds":99317,"freshness":"FRESH","line1":"1 57859U 23141V   26263.91023001  .00000464  00000+0  24868-4 0  9995","line2":"2 57859  53.1610  95.4635 0000722  95.5171 264.5914 15.34391440170242","mean_motion":15.3439144,"eccentricity":7.22e-5,"inclination_deg":53.161,"raan_deg":95.4635,"arg_perigee_deg":95.5171,"mean_anomaly_deg":264.5914,"bstar":2.4868e-5,"rev_number":17024,"period_min":93.848281635356,"perigee_km":462.23477194705,"apogee_km":463.2225929516,"semimajor_km":6840.8656824493,"source":"CELESTRAK","updated_at":"2026-09-21T09:00:33.715138Z"}}